TimePDT,TemperatureF,Dew PointF,Humidity,Sea Level PressureIn,VisibilityMPH,Wind Direction,Wind SpeedMPH,Gust SpeedMPH,PrecipitationIn,Events,Conditions,WindDirDegrees,DateUTC
12:53 AM,55.0,30.0,38,30.15,10.0,North,11.5,-,N/A,,Clear,10,2012-10-04 07:53:00
1:53 AM,55.0,30.0,38,30.13,10.0,NNE,10.4,-,N/A,,Clear,20,2012-10-04 08:53:00
2:53 AM,53.1,30.9,43,30.14,10.0,North,8.1,-,N/A,,Clear,360,2012-10-04 09:53:00
3:53 AM,52.0,32.0,47,30.13,10.0,North,9.2,-,N/A,,Clear,360,2012-10-04 10:53:00
4:53 AM,52.0,33.1,49,30.13,10.0,North,11.5,-,N/A,,Clear,360,2012-10-04 11:53:00
5:53 AM,52.0,32.0,47,30.14,10.0,North,12.7,-,N/A,,Clear,360,2012-10-04 12:53:00
6:53 AM,52.0,32.0,47,30.14,10.0,North,11.5,18.4,N/A,,Clear,350,2012-10-04 13:53:00
7:53 AM,52.0,32.0,47,30.14,10.0,North,11.5,-,N/A,,Clear,360,2012-10-04 14:53:00
8:53 AM,55.9,34.0,44,30.15,10.0,North,13.8,-,N/A,,Clear,360,2012-10-04 15:53:00
9:53 AM,60.1,34.0,38,30.15,10.0,North,13.8,-,N/A,,Clear,360,2012-10-04 16:53:00
10:53 AM,64.0,34.0,33,30.16,10.0,North,15.0,-,N/A,,Clear,10,2012-10-04 17:53:00
11:53 AM,68.0,32.0,26,30.15,10.0,NNE,12.7,21.9,N/A,,Clear,20,2012-10-04 18:53:00
12:53 PM,72.0,30.9,22,30.15,10.0,NNE,15.0,-,N/A,,Clear,20,2012-10-04 19:53:00
1:53 PM,73.0,28.9,20,30.13,10.0,NNE,12.7,-,N/A,,Clear,30,2012-10-04 20:53:00
2:53 PM,73.0,28.0,19,30.12,10.0,NE,11.5,24.2,N/A,,Clear,40,2012-10-04 21:53:00
3:53 PM,73.9,27.0,18,30.12,10.0,NNE,12.7,21.9,N/A,,Clear,30,2012-10-04 22:53:00
4:53 PM,72.0,26.1,18,30.13,10.0,NNE,12.7,21.9,N/A,,Clear,20,2012-10-04 23:53:00
5:53 PM,69.1,24.1,18,30.13,10.0,NNE,17.3,23.0,N/A,,Clear,30,2012-10-05 00:53:00
6:53 PM,64.9,24.1,21,30.14,10.0,NE,11.5,-,N/A,,Clear,40,2012-10-05 01:53:00
7:53 PM,62.1,23.0,22,30.14,10.0,NE,10.4,-,N/A,,Clear,50,2012-10-05 02:53:00
8:53 PM,61.0,21.9,22,30.14,10.0,NE,9.2,-,N/A,,Clear,40,2012-10-05 03:53:00
9:53 PM,60.1,21.0,22,30.15,10.0,NE,12.7,-,N/A,,Clear,40,2012-10-05 04:53:00
10:53 PM,59.0,21.9,24,30.16,10.0,NE,11.5,-,N/A,,Clear,40,2012-10-05 05:53:00
11:53 PM,59.0,21.9,24,30.17,10.0,NE,11.5,-,N/A,,Clear,40,2012-10-05 06:53:00